Weather History for Centerville, IA

Change the Weather History Date:

Wednesday, January 22, 2014

  Actual Average Record
Temperature  
Mean Temperature 12 °F -  
Max Temperature 23 °F 37 °F 64 °F (1967)
Min Temperature 0 °F 17 °F -10 °F (1949)
Degree Days  
Heating Degree Days 54    
Moisture  
Dew Point 5 °F    
Average Humidity 66    
Maximum Humidity 80    
Minimum Humidity 57    
Precipitation  
Precipitation 0.00 in - - ()
Sea Level Pressure  
Sea Level Pressure 30.14 in    
Wind  
Wind Speed 0 mph (North)    
Max Wind Speed 0 mph    
Max Gust Speed -    
Averages and records for this station are not official NWS values.
T = Trace of Precipitation, MM = Missing Value Source: NWS Daily Summary

Daily Weather History Graph

Daily Weather History Graph

Search for Another Location

Airport:

Trip Planner

Search our weather history database for the weather conditions in past years. The results will help you decide how hot, cold, wet, or windy it might be!

Date:

Astronomy

Jan. 22, 2014 Rise Set
Actual Time 7:29 AM CST 5:17 PM CST
Civil Twilight 7:00 AM CST 5:46 PM CST
Nautical Twilight 6:26 AM CST 6:20 PM CST
Astronomical Twilight 5:54 AM CST 6:52 PM CST
Moon 11:52 PM CST (1/22) 10:28 AM CST (1/22)
Length of Visible Light 10h 46m
Length of Day
9h 47m
Waning Gibbous, 65% of the Moon is Illuminated
Jan 22
Waning Gibbous
Jan 23
Last Quarter
Jan 30
New
Feb 6
First Quarter
Feb 14
Full

Hourly Weather History & Observations

Time (CST) Temp. Dew Point Humidity Pressure Visibility Wind Dir Wind Speed Gust Speed Precip Events Conditions
12:15 AM 14.0 °F 5.0 °F 67% 30.08 in - Calm Calm - N/A   Mostly Cloudy
12:35 AM 15.8 °F 5.0 °F 62% 30.07 in - Calm Calm - N/A   Mostly Cloudy
12:55 AM 15.8 °F 5.0 °F 62% 30.06 in - Calm Calm - N/A   Overcast
1:15 AM 15.8 °F 5.0 °F 62% 30.05 in - Calm Calm - N/A   Overcast
1:35 AM 15.8 °F 5.0 °F 62% 30.04 in - Calm Calm - N/A   Overcast
1:55 AM 15.8 °F 5.0 °F 62% 30.04 in - Calm Calm - N/A   Overcast
2:15 AM 15.8 °F 5.0 °F 62% 30.02 in - Calm Calm - N/A   Overcast
2:35 AM 15.8 °F 5.0 °F 62% 30.02 in - Calm Calm - N/A   Overcast
2:50 AM 15.8 °F 5.0 °F 62% 30.02 in - Calm Calm - N/A   Overcast
3:15 AM 17.6 °F 6.8 °F 63% 30.01 in - Calm Calm - N/A   Overcast
3:35 AM 17.6 °F 6.8 °F 63% 30.00 in - Calm Calm - N/A   Overcast
3:55 AM 17.6 °F 6.8 °F 63% 30.00 in - Calm Calm - N/A   Overcast
4:15 AM 17.6 °F 6.8 °F 63% 30.00 in - Calm Calm - N/A   Overcast
4:35 AM 17.6 °F 6.8 °F 63% 30.00 in - Calm Calm - N/A   Overcast
4:55 AM 17.6 °F 6.8 °F 63% 30.00 in - Calm Calm - N/A   Overcast
5:15 AM 19.4 °F 6.8 °F 58% 29.99 in - Calm Calm - N/A   Overcast
5:35 AM 19.4 °F 8.6 °F 63% 29.98 in - Calm Calm - N/A   Overcast
5:55 AM 19.4 °F 8.6 °F 63% 29.99 in - Calm Calm - N/A   Overcast
6:15 AM 19.4 °F 10.4 °F 68% 30.00 in - Calm Calm - N/A   Overcast
6:35 AM 19.4 °F 12.2 °F 74% 30.01 in - Calm Calm - N/A Snow Heavy Snow
6:55 AM 19.4 °F 10.4 °F 68% 30.02 in - Calm Calm - N/A Snow Heavy Snow
7:15 AM 19.4 °F 10.4 °F 68% 30.03 in - Calm Calm - N/A Snow Heavy Snow
7:35 AM 17.6 °F 12.2 °F 79% 30.03 in - Calm Calm - N/A Snow Heavy Snow
7:55 AM 17.6 °F 12.2 °F 79% 30.04 in - Calm Calm - N/A Snow Heavy Snow
8:15 AM 19.4 °F 10.4 °F 68% 30.04 in - Calm Calm - N/A   Mostly Cloudy
8:35 AM 19.4 °F 10.4 °F 68% 30.05 in - Calm Calm - N/A   Overcast
8:55 AM 19.4 °F 10.4 °F 68% 30.06 in - North - - N/A   Overcast
9:15 AM 19.4 °F 10.4 °F 68% 30.07 in - North - - N/A Snow Heavy Snow
9:35 AM 19.4 °F 10.4 °F 68% 30.07 in - North - - N/A   Mostly Cloudy
9:55 AM 19.4 °F 10.4 °F 68% 30.08 in - North - - N/A   Clear
10:15 AM 19.4 °F 10.4 °F 68% 30.08 in - North - - N/A   Clear
10:35 AM 21.2 °F 10.4 °F 63% 30.08 in - North - - N/A   Clear
10:55 AM 23.0 °F 10.4 °F 59% 30.06 in - North - - N/A   Clear
11:15 AM 23.0 °F 12.2 °F 63% 30.05 in - North - - N/A   Clear
11:35 AM 23.0 °F 12.2 °F 63% 30.07 in - North - - N/A   Partly Cloudy
11:55 AM - - N/A% 30.07 in - Calm Calm - N/A   Unknown
12:15 PM 23.0 °F 12.2 °F 63% 30.08 in - Calm Calm - N/A   Partly Cloudy
12:35 PM 23.0 °F 12.2 °F 63% 30.07 in - Calm Calm - N/A   Clear
12:55 PM 23.0 °F 14.0 °F 68% 30.07 in - Calm Calm - N/A   Clear
1:15 PM 23.0 °F 10.4 °F 59% 30.08 in - Calm Calm - N/A   Clear
1:35 PM 23.0 °F 10.4 °F 59% 30.07 in - Calm Calm - N/A   Clear
1:55 PM 23.0 °F 10.4 °F 59% 30.08 in - Calm Calm - N/A   Clear
2:15 PM 23.0 °F 10.4 °F 59% 30.08 in - Calm Calm - N/A   Scattered Clouds
2:35 PM 23.0 °F 10.4 °F 59% 30.10 in - Calm Calm - N/A Snow Heavy Snow
2:55 PM 21.2 °F 14.0 °F 74% 30.11 in - Calm Calm - N/A Snow Heavy Snow
3:15 PM 19.4 °F 14.0 °F 80% 30.12 in - Calm Calm - N/A Snow Heavy Snow
3:35 PM 19.4 °F 12.2 °F 74% 30.13 in - Calm Calm - N/A Snow Heavy Snow
3:55 PM 19.4 °F 12.2 °F 74% 30.14 in - Calm Calm - N/A Snow Heavy Snow
4:15 PM 19.4 °F 10.4 °F 68% 30.15 in - Calm Calm - N/A Snow Heavy Snow
4:35 PM 17.6 °F 10.4 °F 73% 30.16 in - Calm Calm - N/A Snow Heavy Snow
4:55 PM 17.6 °F 10.4 °F 73% 30.17 in - Calm Calm - N/A   Mostly Cloudy
5:15 PM 15.8 °F 8.6 °F 73% 30.18 in - Calm Calm - N/A Snow Heavy Snow
5:35 PM 15.8 °F 8.6 °F 73% 30.19 in - Calm Calm - N/A Snow Heavy Snow
5:55 PM 14.0 °F 3.2 °F 62% 30.22 in - Calm Calm - N/A   Partly Cloudy
6:15 PM 10.4 °F -0.4 °F 62% 30.24 in - Calm Calm - N/A   Clear
6:35 PM 8.6 °F -4.0 °F 57% 30.25 in - Calm Calm - N/A   Clear
6:55 PM 8.6 °F -4.0 °F 57% 30.27 in - Calm Calm - N/A   Clear
7:15 PM 6.8 °F -2.2 °F 67% 30.29 in - Calm Calm - N/A   Clear
7:35 PM 6.8 °F -4.0 °F 61% 30.30 in - Calm Calm - N/A   Clear
7:55 PM 5.0 °F -4.0 °F 66% 30.31 in - Calm Calm - N/A   Clear
8:15 PM 5.0 °F -4.0 °F 66% 30.32 in - Calm Calm - N/A   Clear
8:35 PM 5.0 °F -4.0 °F 66% 30.33 in - Calm Calm - N/A   Clear
8:55 PM 3.2 °F -7.6 °F 61% 30.34 in - Calm Calm - N/A   Clear
9:15 PM 1.4 °F -5.8 °F 72% 30.35 in - Calm Calm - N/A   Clear
9:35 PM 1.4 °F -4.0 °F 78% 30.37 in - Calm Calm - N/A Snow Heavy Snow
9:55 PM -0.4 °F -7.6 °F 72% 30.39 in - Calm Calm - N/A   Partly Cloudy
10:15 PM -0.4 °F -7.6 °F 72% 30.41 in - Calm Calm - N/A   Clear
10:35 PM -0.4 °F -7.6 °F 72% 30.42 in - Calm Calm - N/A   Scattered Clouds
10:55 PM -0.4 °F -9.4 °F 66% 30.44 in - Calm Calm - N/A   Scattered Clouds
11:15 PM -0.4 °F -9.4 °F 66% 30.45 in - Calm Calm - N/A   Clear
11:35 PM -0.4 °F -9.4 °F 66% 30.46 in - Calm Calm - N/A   Clear
11:55 PM -0.4 °F -11.2 °F 60% 30.47 in - Calm Calm - N/A   Clear